This is the latest recevied weather packets stored in our database for station/object KI5RAB. If no packets are shown the sender has not sent any weather packets the latest 10 day(s).
| Time | Temp. | Humidity | Pressure | Rain* | Wind** | Luminosity | Snow |
|---|---|---|---|---|---|---|---|
| 1788404218 | 31.67° C | 59% | 1015.5 hPa | 0 mm | - | 0 W/m² | - |
| 1788403913 | 31.11° C | 58% | 1015.4 hPa | 0 mm | - | 0 W/m² | - |
| 1788403608 | 29.44° C | 65% | 1015.1 hPa | 0 mm | - | 0 W/m² | - |
| 1788403307 | 28.89° C | 67% | 1014.9 hPa | 0 mm | - | 0 W/m² | - |
| 1788403003 | 28.89° C | 66% | 1014.8 hPa | 0 mm | - | 0 W/m² | - |
| 1788402704 | 28.89° C | 66% | 1014.9 hPa | 0 mm | - | 0 W/m² | - |
| 1788402404 | 29.44° C | 65% | 1014.7 hPa | 0 mm | - | 0 W/m² | - |
| 1788402103 | 29.44° C | 65% | 1014.5 hPa | 0 mm | - | 0 W/m² | - |
| 1788401798 | 29.44° C | 65% | 1014.8 hPa | 0 mm | - | 0 W/m² | - |
| 1788401497 | 29.44° C | 64% | 1014.6 hPa | 0 mm | - | 0 W/m² | - |
| 1788401193 | 29.44° C | 64% | 1014.7 hPa | 0 mm | - | 0 W/m² | - |
| 1788400888 | 30° C | 65% | 1014.4 hPa | 0 mm | - | 0 W/m² | - |
| 1788400584 | 30° C | 65% | 1014.3 hPa | 0 mm | - | 0 W/m² | - |
| 1788400278 | 30° C | 63% | 1014.4 hPa | 0 mm | - | 0 W/m² | - |
| 1788399973 | 30° C | 61% | 1014.3 hPa | 0 mm | - | 0 W/m² | - |
| 1788399687 | 30.56° C | 61% | 1014.2 hPa | 0 mm | - | 0 W/m² | - |
| 1788399367 | 30.56° C | 60% | 1014.4 hPa | 0 mm | - | 0 W/m² | - |
| 1788399062 | 30.56° C | 60% | 1014.3 hPa | 0 mm | - | 0 W/m² | - |
| 1788398760 | 31.11° C | 60% | 1014.3 hPa | 0 mm | - | 0 W/m² | - |
| 1788398459 | 31.11° C | 59% | 1014.2 hPa | 0 mm | - | 0 W/m² | - |
| 1788398154 | 31.67° C | 58% | 1014 hPa | 0 mm | - | 0 W/m² | - |
| 1788397854 | 31.67° C | 58% | 1014.1 hPa | 0 mm | - | 0 W/m² | - |
| 1788397550 | 31.67° C | 57% | 1014.1 hPa | 0 mm | - | 1 W/m² | - |
| 1788397248 | 32.22° C | 55% | 1013.9 hPa | 0 mm | - | 1 W/m² | - |
| 1788396943 | 32.78° C | 54% | 1014.1 hPa | 0 mm | - | 3 W/m² | - |
* Rain latest hour (hover to see other rain measurements)
** Current wind speed in m/s (hover to see current wind gust speed)